Time,TemperatureF,DewpointF,PressureIn,WindDirection,WindDirectionDegrees,WindSpeedMPH,WindSpeedGustMPH,Humidity,HourlyPrecipIn,Conditions,Clouds,dailyrainin,SoftwareType,DateUTC
2015-04-25 00:04:00,35.5,23.8,29.82,SE,146,0.0,0.0,62,0.00,,OVC047,0.00,VWS V15.00,2015-04-25 04:04:00,
2015-04-25 00:09:00,35.2,23.9,29.82,SE,146,0.0,0.0,63,0.00,,OVC047,0.00,VWS V15.00,2015-04-25 04:09:00,
2015-04-25 00:14:00,35.0,23.7,29.82,SE,146,0.0,0.0,63,0.00,,OVC047,0.00,VWS V15.00,2015-04-25 04:14:00,
2015-04-25 00:19:00,34.7,23.8,29.81,SE,146,0.0,0.0,64,0.00,,OVC047,0.00,VWS V15.00,2015-04-25 04:19:00,
2015-04-25 00:24:00,34.4,23.5,29.81,SE,146,0.0,0.0,64,0.00,,OVC047,0.00,VWS V15.00,2015-04-25 04:24:00,
2015-04-25 00:29:00,34.2,23.3,29.81,SE,146,0.0,0.0,64,0.00,,OVC047,0.00,VWS V15.00,2015-04-25 04:29:00,
2015-04-25 00:34:00,34.0,23.1,29.81,SE,146,0.0,0.0,64,0.00,,OVC047,0.00,VWS V15.00,2015-04-25 04:34:00,
2015-04-25 00:39:00,33.8,23.3,29.81,SE,146,0.0,0.0,65,0.00,,BKN049,0.00,VWS V15.00,2015-04-25 04:39:00,
2015-04-25 00:44:00,33.6,23.1,29.81,SE,146,0.0,0.0,65,0.00,,BKN049,0.00,VWS V15.00,2015-04-25 04:44:00,
2015-04-25 00:49:00,33.4,23.3,29.81,SSE,148,0.0,1.0,66,0.00,,BKN049,0.00,VWS V15.00,2015-04-25 04:49:00,
2015-04-25 00:54:00,33.3,23.2,29.81,SSE,148,0.0,0.0,66,0.00,,BKN049,0.00,VWS V15.00,2015-04-25 04:54:00,
2015-04-25 00:59:00,33.2,23.1,29.81,SSE,149,0.0,0.0,66,0.00,,BKN049,0.00,VWS V15.00,2015-04-25 04:59:00,
2015-04-25 01:04:00,33.1,23.0,29.81,SSE,149,0.0,0.0,66,0.00,,BKN049,0.00,VWS V15.00,2015-04-25 05:04:00,
2015-04-25 01:09:00,33.0,22.9,29.81,SSE,149,0.0,0.0,66,0.00,,BKN049,0.00,VWS V15.00,2015-04-25 05:09:00,
2015-04-25 01:14:00,33.0,23.2,29.81,SSE,149,0.0,0.0,67,0.00,,BKN049,0.00,VWS V15.00,2015-04-25 05:14:00,
2015-04-25 01:19:00,33.0,23.2,29.80,SSW,196,0.0,1.0,67,0.00,,BKN049,0.00,VWS V15.00,2015-04-25 05:19:00,
2015-04-25 01:24:00,33.0,23.6,29.80,SSW,196,0.0,0.0,68,0.00,,BKN049,0.00,VWS V15.00,2015-04-25 05:24:00,
2015-04-25 01:29:00,32.9,23.2,29.80,SSW,196,0.0,0.0,67,0.00,,BKN049,0.00,VWS V15.00,2015-04-25 05:29:00,
2015-04-25 01:34:00,32.8,23.4,29.80,ESE,119,0.0,0.0,68,0.00,,BKN049,0.00,VWS V15.00,2015-04-25 05:34:00,
2015-04-25 01:39:00,32.8,23.4,29.80,ESE,120,0.0,0.0,68,0.00,,CLR,0.00,VWS V15.00,2015-04-25 05:39:00,
2015-04-25 01:44:00,32.8,23.4,29.80,ESE,120,0.0,0.0,68,0.00,,CLR,0.00,VWS V15.00,2015-04-25 05:44:00,
2015-04-25 01:49:00,32.7,23.3,29.80,ESE,120,0.0,0.0,68,0.00,,CLR,0.00,VWS V15.00,2015-04-25 05:49:00,
2015-04-25 01:54:00,32.6,23.2,29.80,ESE,120,0.0,0.0,68,0.00,,CLR,0.00,VWS V15.00,2015-04-25 05:54:00,
2015-04-25 01:59:00,32.5,23.1,29.80,ESE,120,0.0,0.0,68,0.00,,CLR,0.00,VWS V15.00,2015-04-25 05:59:00,
2015-04-25 02:04:00,32.4,23.4,29.80,ESE,120,0.0,0.0,69,0.00,,CLR,0.00,VWS V15.00,2015-04-25 06:04:00,
2015-04-25 02:09:00,32.3,23.3,29.79,ESE,120,0.0,0.0,69,0.00,,CLR,0.00,VWS V15.00,2015-04-25 06:09:00,
2015-04-25 02:14:00,32.2,23.2,29.79,ESE,120,0.0,0.0,69,0.00,,CLR,0.00,VWS V15.00,2015-04-25 06:14:00,
2015-04-25 02:19:00,32.0,23.3,29.79,SW,220,0.0,0.0,70,0.00,,CLR,0.00,VWS V15.00,2015-04-25 06:19:00,
2015-04-25 02:24:00,32.0,23.3,29.79,SW,220,0.0,0.0,70,0.00,,CLR,0.00,VWS V15.00,2015-04-25 06:24:00,
2015-04-25 02:29:00,31.9,23.2,29.79,SW,220,0.0,0.0,70,0.00,,CLR,0.00,VWS V15.00,2015-04-25 06:29:00,
2015-04-25 02:34:00,31.9,23.6,29.79,SW,216,0.0,0.0,71,0.00,,CLR,0.00,VWS V15.00,2015-04-25 06:34:00,
2015-04-25 02:39:00,31.9,23.9,29.79,East,89,1.0,1.0,72,0.00,,CLR,0.00,VWS V15.00,2015-04-25 06:39:00,
2015-04-25 02:44:00,31.9,23.6,29.79,East,98,0.0,1.0,71,0.00,,CLR,0.00,VWS V15.00,2015-04-25 06:44:00,
2015-04-25 02:54:00,32.0,23.7,29.80,East,98,0.0,0.0,71,0.00,,CLR,0.00,VWS V15.00,2015-04-25 06:54:00,
2015-04-25 02:59:00,31.9,23.6,29.79,East,98,0.0,0.0,71,0.00,,CLR,0.00,VWS V15.00,2015-04-25 06:59:00,
2015-04-25 03:04:00,31.9,23.6,29.79,East,98,0.0,0.0,71,0.00,,CLR,0.00,VWS V15.00,2015-04-25 07:04:00,
2015-04-25 03:09:00,31.8,23.5,29.79,East,98,0.0,0.0,71,0.00,,CLR,0.00,VWS V15.00,2015-04-25 07:09:00,
2015-04-25 03:14:00,31.7,23.4,29.79,East,98,0.0,0.0,71,0.00,,CLR,0.00,VWS V15.00,2015-04-25 07:14:00,
2015-04-25 03:19:00,31.7,23.7,29.79,East,98,0.0,0.0,72,0.00,,CLR,0.00,VWS V15.00,2015-04-25 07:19:00,
2015-04-25 03:24:00,31.6,23.6,29.79,East,98,0.0,0.0,72,0.00,,CLR,0.00,VWS V15.00,2015-04-25 07:24:00,
2015-04-25 03:29:00,31.5,23.5,29.79,East,98,0.0,0.0,72,0.00,,CLR,0.00,VWS V15.00,2015-04-25 07:29:00,
2015-04-25 03:34:00,31.4,23.4,29.79,East,98,0.0,0.0,72,0.00,,CLR,0.00,VWS V15.00,2015-04-25 07:34:00,
2015-04-25 03:39:00,31.3,23.7,29.79,East,98,0.0,1.0,73,0.00,,CLR,0.00,VWS V15.00,2015-04-25 07:39:00,
2015-04-25 03:44:00,31.3,23.7,29.79,East,98,0.0,0.0,73,0.00,,CLR,0.00,VWS V15.00,2015-04-25 07:44:00,
2015-04-25 03:49:00,31.2,23.6,29.79,East,98,0.0,0.0,73,0.00,,CLR,0.00,VWS V15.00,2015-04-25 07:49:00,
2015-04-25 03:54:00,31.2,23.6,29.79,East,98,0.0,0.0,73,0.00,,CLR,0.00,VWS V15.00,2015-04-25 07:54:00,
2015-04-25 03:59:00,31.1,23.5,29.79,East,98,0.0,0.0,73,0.00,,CLR,0.00,VWS V15.00,2015-04-25 07:59:00,
2015-04-25 04:04:00,30.9,23.3,29.79,SE,133,1.0,1.0,73,0.00,,CLR,0.00,VWS V15.00,2015-04-25 08:04:00,
2015-04-25 04:09:00,30.9,23.6,29.78,SE,133,0.0,0.0,74,0.00,,CLR,0.00,VWS V15.00,2015-04-25 08:09:00,
2015-04-25 04:14:00,30.8,23.2,29.78,SE,133,0.0,0.0,73,0.00,,CLR,0.00,VWS V15.00,2015-04-25 08:14:00,
2015-04-25 04:19:00,30.7,23.4,29.78,SE,133,0.0,0.0,74,0.00,,CLR,0.00,VWS V15.00,2015-04-25 08:19:00,
2015-04-25 04:24:00,30.6,23.3,29.79,SE,133,0.0,0.0,74,0.00,,CLR,0.00,VWS V15.00,2015-04-25 08:24:00,
2015-04-25 04:29:00,30.6,23.3,29.79,SE,133,0.0,0.0,74,0.00,,CLR,0.00,VWS V15.00,2015-04-25 08:29:00,
2015-04-25 04:34:00,30.5,23.2,29.78,SE,133,0.0,0.0,74,0.00,,CLR,0.00,VWS V15.00,2015-04-25 08:34:00,
2015-04-25 04:39:00,30.4,23.4,29.78,SE,133,0.0,0.0,75,0.00,,CLR,0.00,VWS V15.00,2015-04-25 08:39:00,
2015-04-25 04:44:00,30.3,23.3,29.78,SE,133,0.0,0.0,75,0.00,,CLR,0.00,VWS V15.00,2015-04-25 08:44:00,
2015-04-25 04:49:00,30.2,23.2,29.78,SE,133,0.0,0.0,75,0.00,,CLR,0.00,VWS V15.00,2015-04-25 08:49:00,
2015-04-25 04:54:00,30.0,23.0,29.78,SE,133,0.0,0.0,75,0.00,,CLR,0.00,VWS V15.00,2015-04-25 08:54:00,
2015-04-25 04:59:00,29.9,23.3,29.78,SE,133,0.0,0.0,76,0.00,,CLR,0.00,VWS V15.00,2015-04-25 08:59:00,
2015-04-25 05:04:00,29.7,23.1,29.78,SE,133,0.0,0.0,76,0.00,,CLR,0.00,VWS V15.00,2015-04-25 09:04:00,
2015-04-25 05:09:00,29.6,23.0,29.78,SE,133,0.0,0.0,76,0.00,,CLR,0.00,VWS V15.00,2015-04-25 09:09:00,
2015-04-25 05:14:00,29.4,22.8,29.79,SE,133,0.0,0.0,76,0.00,,CLR,0.00,VWS V15.00,2015-04-25 09:14:00,
2015-04-25 05:19:00,29.3,23.0,29.79,SE,133,0.0,0.0,77,0.00,,CLR,0.00,VWS V15.00,2015-04-25 09:19:00,
2015-04-25 05:24:00,29.3,23.0,29.79,SE,133,0.0,0.0,77,0.00,,CLR,0.00,VWS V15.00,2015-04-25 09:24:00,
2015-04-25 05:29:00,29.2,22.9,29.79,SE,133,0.0,0.0,77,0.00,,CLR,0.00,VWS V15.00,2015-04-25 09:29:00,
2015-04-25 05:34:00,29.2,22.9,29.79,SE,133,0.0,0.0,77,0.00,,CLR,0.00,VWS V15.00,2015-04-25 09:34:00,
2015-04-25 05:39:00,29.0,22.7,29.80,SE,133,0.0,0.0,77,0.00,,CLR,0.00,VWS V15.00,2015-04-25 09:39:00,
2015-04-25 05:44:00,28.9,22.6,29.80,SE,133,0.0,0.0,77,0.00,,CLR,0.00,VWS V15.00,2015-04-25 09:44:00,
2015-04-25 05:49:00,28.9,22.9,29.79,SE,133,1.0,2.0,78,0.00,,CLR,0.00,VWS V15.00,2015-04-25 09:49:00,
2015-04-25 05:54:00,28.9,22.9,29.79,SE,133,0.0,0.0,78,0.00,,CLR,0.00,VWS V15.00,2015-04-25 09:54:00,
2015-04-25 05:59:00,28.9,23.2,29.80,SE,133,0.0,0.0,79,0.00,,CLR,0.00,VWS V15.00,2015-04-25 09:59:00,
2015-04-25 06:04:00,29.0,23.3,29.80,SE,133,0.0,0.0,79,0.00,,CLR,0.00,VWS V15.00,2015-04-25 10:04:00,
2015-04-25 06:09:00,29.0,23.0,29.80,SE,133,0.0,0.0,78,0.00,,CLR,0.00,VWS V15.00,2015-04-25 10:09:00,
2015-04-25 06:14:00,29.1,23.1,29.80,SE,133,0.0,0.0,78,0.00,,CLR,0.00,VWS V15.00,2015-04-25 10:14:00,
2015-04-25 06:19:00,29.2,23.2,29.80,SE,133,0.0,0.0,78,0.00,,CLR,0.00,VWS V15.00,2015-04-25 10:19:00,
2015-04-25 06:24:00,29.4,23.4,29.81,SE,133,1.0,1.0,78,0.00,,CLR,0.00,VWS V15.00,2015-04-25 10:24:00,
2015-04-25 06:29:00,29.8,23.8,29.81,SE,133,0.0,0.0,78,0.00,,CLR,0.00,VWS V15.00,2015-04-25 10:29:00,
2015-04-25 06:34:00,30.1,24.1,29.81,SE,133,0.0,0.0,78,0.00,,CLR,0.00,VWS V15.00,2015-04-25 10:34:00,
2015-04-25 06:39:00,30.2,24.2,29.81,SE,133,0.0,0.0,78,0.00,,CLR,0.00,VWS V15.00,2015-04-25 10:39:00,
2015-04-25 06:44:00,30.3,24.0,29.81,SE,133,0.0,0.0,77,0.00,,CLR,0.00,VWS V15.00,2015-04-25 10:44:00,
2015-04-25 06:49:00,30.6,24.6,29.81,SE,133,0.0,0.0,78,0.00,,CLR,0.00,VWS V15.00,2015-04-25 10:49:00,
2015-04-25 06:54:00,30.9,24.9,29.81,SE,139,0.0,0.0,78,0.00,,CLR,0.00,VWS V15.00,2015-04-25 10:54:00,
2015-04-25 06:59:00,31.4,25.0,29.81,SE,139,0.0,0.0,77,0.00,,CLR,0.00,VWS V15.00,2015-04-25 10:59:00,
2015-04-25 07:04:00,31.9,25.5,29.81,SE,139,0.0,0.0,77,0.00,,CLR,0.00,VWS V15.00,2015-04-25 11:04:00,
2015-04-25 07:09:00,32.4,25.4,29.81,SE,139,0.0,0.0,75,0.00,,CLR,0.00,VWS V15.00,2015-04-25 11:09:00,
2015-04-25 07:14:00,32.9,25.5,29.81,SE,140,0.0,0.0,74,0.00,,CLR,0.00,VWS V15.00,2015-04-25 11:14:00,
2015-04-25 07:19:00,33.4,25.7,29.81,SE,140,0.0,0.0,73,0.00,,CLR,0.00,VWS V15.00,2015-04-25 11:19:00,
2015-04-25 07:24:00,33.8,26.1,29.81,SE,140,0.0,0.0,73,0.00,,CLR,0.00,VWS V15.00,2015-04-25 11:24:00,
2015-04-25 07:29:00,34.3,26.2,29.82,SE,140,0.0,0.0,72,0.00,,CLR,0.00,VWS V15.00,2015-04-25 11:29:00,
2015-04-25 07:34:00,34.9,26.1,29.81,SE,140,0.0,0.0,70,0.00,,CLR,0.00,VWS V15.00,2015-04-25 11:34:00,
2015-04-25 07:39:00,35.3,26.2,29.81,SE,140,0.0,0.0,69,0.00,,CLR,0.00,VWS V15.00,2015-04-25 11:39:00,
2015-04-25 07:44:00,35.6,26.1,29.81,SSW,197,0.0,0.0,68,0.00,,CLR,0.00,VWS V15.00,2015-04-25 11:44:00,
2015-04-25 07:49:00,36.1,26.6,29.81,South,182,0.0,0.0,68,0.00,,CLR,0.00,VWS V15.00,2015-04-25 11:49:00,
2015-04-25 07:54:00,36.5,26.6,29.81,South,182,0.0,0.0,67,0.00,,CLR,0.00,VWS V15.00,2015-04-25 11:54:00,
2015-04-25 07:59:00,36.9,26.6,29.81,SE,130,0.0,0.0,66,0.00,,CLR,0.00,VWS V15.00,2015-04-25 11:59:00,